Dati Storici

Data ora Umidita' aria (%) Temperatura aria (°C) Rad globale (W/m²) Gonioanemometro (°) Tacoanemometro (m/s) Pioggia (mm)
09-11-2012 16:50 68.7 % 12.133 40.15 176.629 0.374 0
09-11-2012 16:40 67.3 % 12.471 65.213 129.943 0.721 0
09-11-2012 16:30 67.6 % 12.609 104.769 169 0.544 0
09-11-2012 16:20 67.7 % 12.448 125.871 92.921 0.56 0
09-11-2012 16:10 66.5 % 12.252 79.878 81.341 1.099 0
09-11-2012 16:00 65.2 % 12.656 65.381 79.23 0.561 0
09-11-2012 15:50 63 % 13.161 112.994 116.285 0.647 0
09-11-2012 15:40 61.5 % 13.938 117.985 72.708 0.317 0
09-11-2012 15:30 60.8 % 14.004 280.504 104.218 1.387 0
09-11-2012 15:20 61.7 % 13.484 295.127 215.651 0.46 0
09-11-2012 15:10 59.6 % 14.025 225.432 184.215 0.917 0
09-11-2012 15:00 62 % 14.385 263.395 136.172 0.636 0
09-11-2012 14:50 61 % 14.1 309.446 118.343 1.136 0
09-11-2012 14:40 61.9 % 14.075 316.46 85.417 1.369 0
09-11-2012 14:30 61.8 % 13.218 318 90.119 0.972 0
09-11-2012 14:20 61.8 % 13.633 363.305 56.129 1.22 0
09-11-2012 14:10 61 % 13.659 403.166 105.928 0.753 0
09-11-2012 14:00 61.7 % 13.502 405.508 40.312 0.705 0
09-11-2012 13:50 59.9 % 13.331 430.539 42.063 0.93 0
09-11-2012 13:40 62.7 % 13.185 419.876 65.366 0.565 0

I dati sono presentati in modo automatico a scopo informativo. In seguito a verifica i dati possono subire modifiche o essere invalidati e non riportati negli archivi definitivi.